Wind_Speed
24 24 23 22 21 21 20 19 19 20 20 19 20 20 20 19 19 19 19 19 19 18 18 17 18 19 21 22 22 23 22 21 20 19 19 18 18 18 18 18 18 18 18 17 17 17 17 17 18 19 21 22 23 25 26 26 26 27 27 28 28 29 29 29 30 31 32 33 33
24 24 23 22 21 21 21 20 20 20 20 19 19 19 19 19 18 18 18 19 19 19 18 18 20 21 21 21 22 22 22 22 21 20 19 19 19 19 19 19 18 18 17 17 16 16 16 16 17 18 19 20 21 22 24 25 26 26 27 28 29 28 28 29 29 30 31 32 32
24 23 23 23 23 23 22 21 21 21 20 19 19 19 19 19 18 18 18 18 19 19 19 20 21 21 21 21 22 22 22 22 22 21 20 20 20 20 19 19 19 18 18 17 16 15 15 15 16 17 18 18 19 21 22 24 24 25 26 27 28 28 27 27 28 29 30 29 30
24 24 23 23 23 23 22 21 21 20 19 18 19 19 19 19 19 19 18 19 19 20 20 20 21 21 21 21 22 22 23 22 22 22 22 21 21 21 20 20 19 19 19 18 17 16 16 15 15 16 17 18 19 20 22 23 24 25 26 27 27 27 27 28 28 29 29 28 29
24 24 23 22 22 21 21 21 21 20 19 18 19 19 19 19 19 19 19 19 19 20 20 20 20 21 21 21 21 22 23 23 23 23 23 23 23 22 22 21 21 21 20 19 18 18 17 16 16 16 16 16 17 18 19 21 23 24 26 26 26 27 27 27 27 28 28 28 29
24 23 22 22 21 21 20 20 20 19 18 18 18 19 19 19 19 19 19 19 19 19 19 19 19 20 21 21 21 22 23 23 23 23 23 23 24 24 23 23 22 21 21 20 20 19 18 17 16 15 15 15 15 15 16 17 19 20 21 23 24 25 26 27 27 28 28 29 30
23 23 22 22 21 21 20 19 19 18 18 18 18 19 19 19 19 19 19 19 19 20 20 19 19 20 20 21 21 22 22 22 23 23 23 23 24 24 25 24 23 22 22 21 20 20 19 19 17 16 16 15 15 15 16 18 18 19 18 18 18 19 20 23 24 25 26 28 29
22 22 21 21 21 21 20 19 18 18 18 18 18 18 19 19 18 19 19 19 19 20 20 19 19 19 20 20 21 21 22 22 22 22 22 22 23 24 25 25 24 23 22 22 21 20 20 20 18 17 18 18 17 18 19 21 21 21 21 19 18 18 18 18 20 21 22 24 26
22 22 21 21 21 21 20 19 17 16 17 18 18 18 18 18 18 19 19 19 19 19 19 19 19 19 19 19 20 21 21 21 22 22 22 22 22 23 24 24 24 24 23 23 21 20 20 20 19 19 20 20 20 21 22 23 23 23 22 21 20 20 20 20 21 21 21 22 22
21 21 21 21 21 20 20 18 16 16 17 18 18 18 17 17 18 19 19 19 19 19 20 20 19 19 19 19 19 20 20 20 21 21 21 21 21 22 22 22 23 23 23 23 22 21 20 19 19 19 20 20 20 21 21 22 22 22 22 21 21 22 22 22 23 23 22 22 22
20 20 20 20 21 20 19 18 16 16 17 18 19 19 18 17 18 18 19 19 19 19 20 22 20 19 19 19 19 19 20 20 20 20 20 20 20 20 21 21 21 22 22 22 22 21 20 19 19 19 19 19 20 20 21 21 22 22 21 21 21 21 22 23 23 23 23 23 24
19 19 20 20 20 19 19 18 17 16 17 18 19 19 19 18 18 18 18 19 19 20 21 22 21 20 19 19 19 19 19 19 19 19 19 19 19 19 19 20 20 20 21 21 21 20 19 19 19 20 20 20 20 20 21 21 22 21 21 21 22 21 22 22 23 23 23 24 24
18 18 19 19 19 19 18 18 17 17 18 19 20 20 19 19 18 18 18 19 19 20 21 22 22 21 20 20 20 20 19 19 18 18 19 19 19 19 19 19 19 20 20 20 19 19 19 19 19 19 20 20 20 20 21 21 21 21 21 22 22 22 22 23 23 23 23 24 24
17 17 18 18 19 18 18 18 17 17 18 19 20 20 20 19 18 18 19 19 19 20 21 22 22 21 20 20 20 19 19 18 18 18 18 19 19 19 19 19 19 20 19 19 19 18 18 18 18 19 20 20 21 21 21 21 21 21 21 21 22 22 22 23 23 23 23 23 24
16 17 18 18 18 18 18 18 17 18 18 19 20 20 19 19 19 19 19 19 19 20 21 22 22 21 20 20 20 19 18 18 18 18 18 19 19 19 20 20 20 20 20 20 19 18 18 18 18 19 20 21 21 21 22 21 21 21 21 21 22 22 22 23 23 23 23 24 24
16 17 18 18 19 19 18 18 18 18 18 19 19 19 19 19 19 19 19 19 19 20 21 22 22 21 21 21 20 19 18 18 18 18 19 19 20 20 20 20 20 20 20 20 19 19 18 18 18 19 20 21 21 22 22 22 22 22 22 22 22 23 23 23 23 24 24 24 24
16 17 18 19 19 19 19 18 18 18 18 18 19 19 19 19 19 19 19 19 20 21 22 22 21 21 21 21 21 20 18 18 18 18 18 19 19 20 20 20 20 20 20 20 19 19 18 18 19 19 20 20 21 21 22 22 22 22 23 23 23 23 24 24 24 24 24 24 24
17 18 19 19 20 20 20 19 19 19 18 19 19 19 19 20 20 20 20 20 21 22 22 22 21 21 21 21 21 20 19 18 18 18 18 19 19 19 19 19 19 19 19 19 18 18 18 18 19 19 20 20 21 21 21 22 22 22 23 23 24 24 24 24 25 25 25 25 25
17 18 19 20 21 21 21 21 20 20 20 20 20 20 21 21 21 21 21 22 22 22 22 22 22 21 21 21 22 21 20 19 18 19 19 19 19 19 19 19 19 19 18 18 17 17 17 18 19 20 21 21 21 21 21 22 22 22 23 23 23 23 24 24 25 25 25 25 25
17 19 20 21 21 22 22 22 21 21 21 21 21 22 22 22 22 22 23 23 22 22 22 22 22 22 21 21 22 22 21 20 20 20 20 20 19 19 19 20 20 19 18 18 17 17 18 19 20 21 22 22 22 22 23 23 23 23 23 23 23 23 24 24 25 25 25 25 25
19 20 21 22 22 22 22 22 22 22 22 22 22 23 23 23 23 23 23 23 22 22 22 22 22 22 22 22 22 22 22 22 22 21 21 21 20 20 20 20 20 20 19 18 17 18 19 20 21 22 23 23 23 24 24 25 25 25 25 24 24 24 25 25 25 25 25 25 25
20 22 22 22 22 22 22 23 23 23 23 23 23 23 23 24 23 23 23 22 22 22 22 21 21 21 21 22 22 23 23 23 23 22 22 21 21 20 21 21 21 20 19 18 18 19 21 22 23 23 24 24 24 25 25 26 26 26 26 26 26 26 26 26 26 25 25 25 25
22 22 22 22 22 22 23 23 23 23 23 23 23 23 23 24 24 23 23 22 22 21 21 21 21 21 21 21 22 22 23 24 24 23 22 21 21 21 21 21 20 20 19 19 19 20 22 23 24 24 24 24 25 26 26 26 26 26 27 27 28 28 27 27 26 26 26 26 26
23 23 22 22 22 23 23 23 24 24 24 23 23 23 23 24 24 23 23 22 22 21 21 20 20 20 20 21 21 22 23 23 24 24 23 21 20 20 21 21 20 20 19 19 20 21 22 23 24 25 25 25 25 26 26 26 26 26 27 28 28 28 28 28 27 27 27 27 27
23 23 22 23 23 23 23 24 24 24 24 23 23 23 23 23 23 23 23 22 22 21 21 20 20 20 20 21 21 21 22 23 24 24 23 22 21 21 21 20 20 19 19 19 20 21 22 23 23 24 25 25 26 26 26 26 26 26 26 27 27 28 29 29 29 28 28 28 28
23 23 23 23 23 23 23 24 24 24 23 23 22 23 23 23 23 23 23 22 22 21 21 21 21 20 20 21 21 21 22 22 23 23 23 22 22 21 21 20 19 19 19 20 21 22 23 23 23 24 25 25 26 26 26 26 26 26 26 26 26 27 28 29 29 30 29 29 29
23 24 24 24 24 24 24 24 24 24 23 23 23 23 23 23 23 23 22 22 22 22 22 21 21 21 20 20 21 21 22 22 22 22 21 21 21 21 21 20 20 20 20 21 22 23 23 24 24 24 25 25 26 26 26 25 26 26 26 26 26 26 27 28 29 30 31 31 31
24 24 24 24 24 24 24 24 24 24 24 23 23 22 23 23 23 23 22 22 22 22 22 22 21 20 20 20 20 20 21 21 21 21 20 20 20 21 21 20 20 21 21 22 22 23 24 24 25 25 25 26 26 26 25 25 26 26 26 26 26 26 27 28 29 30 31 32 33
24 24 25 25 25 24 24 24 24 24 23 23 22 22 22 23 23 23 22 22 22 22 22 22 21 20 19 19 19 19 19 20 20 20 20 20 20 21 21 21 22 23 23 23 23 23 24 25 25 25 26 26 26 25 25 25 26 26 26 26 26 26 27 29 30 30 32 33 33
23 24 24 25 24 24 24 24 23 23 22 22 22 22 22 22 22 22 22 22 21 21 21 21 20 19 19 19 19 19 19 19 19 19 19 20 21 21 22 23 24 24 24 23 23 24 25 25 26 26 26 27 26 26 25 25 26 26 26 26 27 27 28 29 30 31 32 33 34
23 23 24 24 23 23 23 23 22 22 21 21 21 21 21 22 22 22 21 21 20 20 20 20 20 19 19 18 18 18 18 18 18 19 19 20 21 22 23 24 26 25 24 23 24 25 26 26 26 26 27 27 27 26 26 26 26 26 26 26 28 28 29 30 32 32 33 34 34
22 22 23 23 23 22 22 22 21 21 21 20 20 21 21 21 21 21 20 20 20 20 20 20 20 20 19 18 18 18 18 18 18 19 20 21 22 24 25 26 26 26 25 24 25 26 26 26 27 27 28 28 27 27 26 26 26 26 27 27 28 29 30 30 32 33 34 35 35
21 22 22 22 22 22 22 21 21 21 20 20 20 20 21 21 21 21 20 20 19 20 20 21 21 20 19 19 18 18 18 18 19 20 21 22 23 25 26 26 26 26 25 25 26 26 27 27 27 28 28 29 28 27 27 27 27 27 27 28 29 30 30 31 32 33 35 35 35
21 21 21 21 21 21 21 21 21 20 20 20 20 20 20 21 21 21 21 20 19 20 20 20 20 19 19 19 18 18 19 19 20 21 22 24 25 26 27 27 27 26 26 26 26 27 27 27 28 28 29 29 28 27 27 27 27 27 28 28 30 31 32 32 33 34 35 35 35
20 21 21 21 21 21 21 21 20 20 20 20 20 21 21 21 21 21 21 20 20 20 20 20 20 19 19 19 18 18 19 21 22 23 24 25 26 27 28 28 28 27 27 26 27 27 27 28 28 29 29 29 28 28 28 28 28 28 29 30 31 32 33 34 34 34 34 34 34
20 20 21 21 21 21 21 20 20 20 20 20 21 21 22 21 21 21 21 21 21 21 21 21 21 20 20 20 19 19 20 22 23 24 25 25 26 27 28 28 29 29 28 27 27 27 28 28 29 30 30 29 28 28 28 28 28 29 30 31 32 33 34 34 34 34 34 34 34
19 20 20 20 21 20 20 20 20 20 21 21 21 22 22 22 22 21 21 21 22 23 23 22 22 21 21 21 21 21 21 22 23 24 25 26 27 28 28 29 29 29 29 28 28 28 28 29 29 30 30 29 28 28 28 29 28 29 31 32 32 33 34 34 35 35 35 35 35
19 19 19 20 20 20 20 20 20 20 21 22 22 22 22 22 22 22 22 21 22 23 23 23 22 22 22 22 22 22 22 23 23 24 25 26 27 27 28 28 29 30 30 29 28 28 29 29 30 30 30 29 29 29 29 29 30 30 31 31 32 34 34 34 34 35 35 36 36
18 18 19 19 19 19 19 19 20 20 21 22 22 23 22 22 22 22 22 21 22 22 23 22 22 22 22 22 22 23 23 23 23 24 25 26 27 27 27 28 29 29 29 29 28 28 29 29 30 30 30 29 29 28 28 29 30 30 31 32 33 34 35 35 35 35 36 37 38
17 17 18 18 18 18 19 19 19 20 21 22 22 22 22 22 22 22 22 21 21 22 22 22 22 22 22 22 22 23 24 24 23 24 25 26 27 27 26 27 28 29 29 28 28 28 29 29 30 30 29 29 29 29 28 28 29 30 30 32 33 34 36 36 36 35 36 37 38
16 17 17 18 17 18 18 19 19 20 21 21 22 22 21 21 22 22 22 22 22 22 22 22 22 22 22 22 22 23 24 24 24 25 25 26 27 26 26 26 27 28 28 28 28 28 28 29 29 29 29 29 29 29 28 28 29 30 31 32 33 34 36 37 37 37 37 37 37
Wind_Direction
13 14 13 11 9 7 5 4 4 3 4 6 6 7 8 8 8 8 9 10 9 7 5 2 1 2 3 3 3 2 0 357 354 351 350 350 348 344 338 333 328 326 323 321 319 318 316 314 308 300 291 284 280 277 275 273 272 270 269 267 265 265 264 263 263 262 262 262 262
13 14 13 12 10 8 6 4 3 2 3 5 6 7 7 6 6 7 8 9 9 8 6 5 6 6 5 3 4 5 5 4 2 359 357 356 353 350 345 341 336 332 329 327 324 322 321 319 315 307 298 290 284 281 279 277 275 274 272 270 268 266 265 264 263 263 263 262 262
12 13 13 12 10 8 5 3 1 0 1 5 6 7 7 5 6 6 7 7 8 8 7 7 9 9 7 5 6 7 8 9 8 7 5 2 359 356 352 349 344 340 337 334 331 327 324 321 318 312 304 296 289 284 281 280 278 276 274 272 270 268 266 264 263 263 263 262 261
13 12 11 9 8 7 5 3 1 359 360 4 7 8 8 6 6 7 7 5 6 6 6 6 8 9 8 7 6 8 10 11 11 11 10 8 5 3 0 357 354 351 348 344 340 335 330 326 322 318 314 307 298 290 285 282 280 278 275 274 272 270 268 266 264 264 264 262 261
11 11 9 7 6 6 6 5 2 360 0 6 7 9 9 6 7 8 8 5 4 4 4 5 7 8 8 6 6 7 10 11 11 11 11 10 9 7 6 4 3 1 357 354 351 347 343 340 336 333 330 326 316 305 297 292 288 284 279 276 274 271 269 267 265 264 263 262 261
7 8 8 7 7 6 7 6 3 1 2 8 9 9 8 6 7 9 8 5 4 3 3 5 7 8 7 4 4 5 7 8 9 10 9 9 8 9 9 8 7 6 3 1 360 358 357 356 353 350 347 343 337 330 325 321 314 306 297 289 282 277 274 272 269 268 267 265 263
4 4 4 5 5 6 6 6 4 2 4 9 9 9 9 7 8 9 9 7 6 4 3 4 7 9 7 3 1 2 3 4 5 5 6 5 5 6 7 8 8 8 7 6 5 3 2 3 1 357 352 349 347 345 346 347 344 340 332 323 310 300 292 286 283 280 276 272 270
3 2 1 2 2 3 4 5 2 1 3 7 7 8 8 6 7 9 10 9 7 4 3 3 6 9 8 4 1 0 1 1 1 1 2 1 2 3 4 5 6 7 8 9 8 5 3 3 0 357 355 354 351 349 349 351 351 350 349 346 341 335 327 318 312 305 299 292 287
0 360 360 360 0 0 1 2 0 359 360 3 5 6 6 4 6 8 8 6 5 5 4 4 5 8 9 6 2 0 360 358 358 358 358 358 359 359 360 0 1 3 5 7 8 7 4 1 358 356 354 352 350 349 349 349 348 348 347 346 344 342 340 337 334 331 326 320 313
357 358 358 358 358 359 359 360 359 358 358 360 1 3 3 1 2 4 4 4 4 4 4 5 6 7 7 6 3 1 360 358 356 355 355 356 356 357 356 356 356 357 359 1 3 4 2 358 354 352 350 349 347 346 345 346 345 343 341 340 338 336 335 335 335 335 334 331 328
356 357 357 357 357 357 358 358 358 357 357 358 359 0 0 359 359 360 0 1 0 0 2 5 7 7 6 4 2 1 359 357 355 353 353 353 354 354 354 353 352 353 353 355 357 358 357 355 352 349 347 346 345 344 343 343 342 340 338 336 335 333 332 332 332 331 330 328 326
355 355 356 356 356 356 356 358 357 357 357 357 358 359 358 357 357 357 357 357 357 358 1 4 6 6 5 2 0 358 357 356 353 352 351 351 351 352 351 350 350 349 350 350 352 353 353 351 349 347 345 344 343 342 341 340 340 338 336 334 333 332 330 330 329 329 327 325 323
353 354 354 355 355 355 356 357 357 356 356 356 357 357 357 355 355 355 355 355 355 356 359 2 4 5 3 1 359 357 355 353 351 350 349 349 349 349 349 348 348 347 347 347 348 348 348 347 346 344 342 341 340 339 338 337 336 335 333 332 332 330 328 327 326 326 325 323 321
351 352 353 354 355 356 356 356 356 355 355 355 356 355 354 353 354 355 354 353 353 355 357 360 3 4 2 0 358 356 353 350 348 347 347 347 347 347 347 346 346 345 345 344 345 345 344 343 342 341 339 338 336 335 334 334 333 331 330 329 328 327 325 324 324 323 322 321 319
350 352 353 354 355 356 356 355 355 354 353 353 354 353 352 352 353 354 353 352 352 354 356 359 0 2 2 1 359 356 352 349 347 346 346 346 346 346 345 345 344 343 343 342 342 342 342 341 339 338 337 336 334 333 332 331 330 329 327 327 325 324 322 321 321 320 319 318 317
350 351 352 353 354 355 355 355 353 352 352 351 351 351 351 350 351 352 351 350 350 353 356 358 358 359 360 0 359 356 352 348 347 346 346 345 345 345 344 343 342 342 341 341 340 340 339 339 338 337 336 334 333 331 330 329 327 326 325 324 323 321 320 318 318 317 316 315 314
348 350 351 352 352 353 354 353 352 351 349 349 349 349 349 349 349 350 350 350 350 352 354 356 357 357 357 357 358 356 352 348 346 346 345 344 343 343 342 341 341 340 339 339 338 337 337 337 336 336 334 332 331 329 327 326 325 324 323 322 320 319 318 316 315 314 313 312 311
346 348 349 350 350 351 352 352 351 350 349 348 348 349 349 349 348 348 349 351 352 352 352 353 355 355 355 354 356 355 352 348 346 344 343 342 341 340 340 339 338 337 337 336 336 335 334 334 334 333 332 330 327 326 325 323 322 320 320 318 317 316 315 314 313 312 310 310 309
344 345 347 348 349 351 352 352 351 350 349 349 349 349 350 350 350 350 351 352 354 353 351 351 352 353 353 352 353 353 352 349 346 344 343 341 340 339 339 338 337 336 335 334 333 332 332 332 332 331 330 327 325 324 322 321 320 318 317 316 315 313 313 312 311 310 308 307 307
342 343 345 347 349 350 351 351 351 351 351 351 351 351 352 352 352 352 352 353 353 353 352 351 350 350 350 350 350 350 350 349 347 346 344 343 341 339 338 337 336 335 335 334 332 332 331 332 331 331 330 328 326 324 323 322 320 319 317 315 313 312 311 310 309 308 306 305 305
342 343 345 347 348 349 350 350 351 352 352 352 352 353 353 353 353 353 353 352 352 352 352 351 350 349 349 348 347 347 347 348 348 347 346 344 341 338 337 336 335 335 334 334 333 333 333 333 332 331 330 329 327 326 325 324 322 320 318 316 314 313 311 310 309 307 306 305 304
342 344 345 347 348 348 349 350 351 352 352 353 353 353 353 353 353 352 352 352 352 352 352 351 350 349 348 347 345 345 344 345 346 346 345 343 340 338 336 336 336 335 334 333 334 334 335 334 333 333 332 330 329 327 326 325 323 321 319 317 316 314 312 311 310 308 307 306 305
343 345 346 347 348 348 349 350 350 351 352 352 352 352 352 351 351 351 351 351 352 351 351 351 350 349 347 345 344 343 343 343 343 344 344 342 339 337 336 336 336 335 334 334 334 335 335 334 333 332 332 330 329 327 326 324 323 321 319 318 316 315 313 312 310 309 308 307 306
345 347 348 348 349 349 349 350 350 350 351 351 351 350 350 350 350 350 350 351 351 351 350 350 349 348 346 344 343 342 342 341 341 342 342 341 339 337 336 336 335 334 333 333 333 333 333 332 331 331 330 329 328 326 325 323 322 321 319 318 316 315 313 312 311 310 309 308 308
347 348 349 349 349 349 349 349 349 349 349 350 350 349 348 348 348 348 349 349 350 351 350 349 349 347 345 343 343 342 341 341 340 340 340 339 338 337 336 335 334 332 331 330 330 330 330 329 329 329 329 328 327 325 324 323 321 320 318 317 316 314 313 312 311 311 310 309 308
349 349 349 348 348 348 348 348 347 347 348 348 348 348 347 347 347 348 348 349 350 350 350 349 348 347 345 343 342 341 340 340 339 339 338 336 336 335 335 334 332 330 329 328 328 328 328 328 328 328 328 328 327 325 324 322 321 320 319 317 315 314 313 312 312 311 311 310 309
349 348 348 347 347 346 346 346 345 346 346 347 347 347 346 346 347 347 348 348 349 349 349 348 348 346 344 342 340 339 338 338 337 337 336 334 333 333 333 331 330 328 327 326 326 326 326 328 329 329 329 328 327 326 324 322 321 321 319 318 316 314 313 312 311 311 311 311 310
348 347 346 346 345 344 344 344 344 345 345 346 346 346 345 346 346 347 347 347 348 347 347 346 345 344 341 339 338 336 335 335 335 334 333 332 331 331 330 329 328 327 326 326 326 326 327 328 329 330 330 329 328 326 324 323 322 321 320 317 316 314 313 312 311 311 311 310 310
347 346 345 344 343 342 343 343 343 343 344 344 344 345 345 345 345 345 345 345 346 345 343 342 341 340 338 336 335 333 333 333 333 332 331 331 330 330 329 328 327 326 327 327 327 328 328 329 330 331 331 330 329 327 325 324 322 321 319 316 315 313 312 311 311 310 310 310 309
346 344 343 341 340 340 341 341 341 342 342 343 343 343 343 343 343 343 343 343 342 341 339 338 338 337 335 334 333 332 332 332 332 331 331 330 330 329 328 328 327 328 329 329 329 329 330 330 331 331 331 331 330 328 326 324 322 319 317 315 313 312 311 310 310 309 309 309 308
343 342 340 338 337 337 338 339 339 340 340 341 342 342 341 341 341 341 341 340 339 337 337 337 337 336 335 334 333 332 331 331 332 332 331 330 329 328 328 328 329 330 331 331 331 331 331 332 332 332 332 332 331 329 326 324 320 317 315 312 312 311 310 310 310 309 308 308 307
340 339 337 335 335 335 336 337 337 338 339 340 340 340 340 340 339 340 340 340 338 337 337 337 337 337 336 335 333 332 332 332 332 332 331 330 329 328 329 329 331 332 333 332 332 332 333 333 333 332 332 332 331 328 326 323 319 316 314 312 311 311 310 309 309 308 308 307 306
337 336 335 334 333 333 334 336 337 338 339 339 339 340 340 339 339 340 341 341 339 337 337 337 337 337 336 335 333 333 332 332 332 331 331 330 330 330 330 331 332 333 334 333 333 333 333 333 333 333 332 332 330 328 325 322 319 316 314 313 312 311 310 309 308 307 307 306 305
336 335 334 333 333 333 334 336 337 338 338 339 339 340 341 341 341 341 341 341 339 337 337 338 337 336 335 335 333 332 331 331 331 331 331 332 332 331 331 331 332 334 334 333 333 334 334 333 333 333 333 332 330 328 325 322 320 317 314 313 312 312 311 310 308 307 306 305 304
335 334 333 333 334 334 335 337 338 339 339 340 340 341 341 342 342 341 341 340 338 337 338 339 339 338 337 336 334 332 332 332 332 332 333 333 333 333 332 331 332 334 335 334 334 334 334 334 334 333 333 332 330 328 325 322 320 318 316 314 313 313 312 311 309 308 307 305 303
336 335 334 334 334 336 337 338 339 340 340 341 341 341 342 342 342 342 342 340 339 338 339 340 340 340 339 337 335 334 333 333 333 332 333 334 334 333 332 331 332 334 335 334 334 334 334 334 334 334 333 332 329 327 325 323 321 319 317 316 315 314 313 312 311 309 307 305 303
337 336 335 335 335 337 338 340 340 341 341 342 342 342 342 342 342 343 343 342 341 340 340 340 340 340 338 337 335 334 333 334 333 333 333 334 334 333 332 331 331 333 335 335 334 334 334 333 333 333 333 331 329 327 325 324 321 320 318 317 315 315 314 313 312 310 308 306 304
338 338 337 336 337 338 340 341 342 342 341 342 342 343 343 343 342 343 344 344 342 341 340 340 340 340 338 336 334 333 333 334 334 334 333 333 333 333 331 330 330 332 333 334 333 333 333 333 332 333 332 331 328 327 325 324 321 319 318 317 316 315 314 313 312 310 308 306 305
340 339 339 339 339 340 341 342 343 343 342 342 343 344 344 344 343 343 344 345 344 342 341 340 339 339 338 336 333 332 333 334 334 334 333 332 333 332 331 329 329 330 332 333 333 332 332 332 331 332 331 330 328 326 324 322 320 318 317 317 316 315 315 314 312 310 308 306 306
341 341 341 342 342 343 343 344 344 344 344 343 344 344 344 343 342 343 345 346 346 345 343 340 339 339 338 335 333 332 332 333 334 334 333 332 332 332 330 329 328 329 331 332 331 331 331 330 330 330 330 329 328 326 324 321 319 317 316 316 316 316 315 314 312 310 308 307 306
343 344 344 345 346 346 346 345 344 344 345 345 345 345 344 343 344 345 347 347 347 347 344 341 339 338 337 335 333 332 332 332 332 333 333 332 332 331 331 329 328 329 329 330 330 330 329 329 328 329 329 328 327 326 323 320 319 318 316 316 315 315 314 313 312 311 309 308 307
Height
794 792 791 791 790 789 789 788 787 787 785 784 783 782 781 780 779 778 778 776 775 775 774 773 772 771 769 768 767 765 764 762 761 760 760 759 758 758 757 756 755 755 755 754 754 753 753 753 753 753 753 752 752 752 752 752 751 751 751 750 750 749 749 749 748 748 748 747 747
794 793 792 792 791 790 789 788 788 787 786 785 784 783 782 781 780 779 778 777 776 775 774 773 772 771 769 768 767 765 764 763 761 760 759 759 758 757 756 755 755 754 753 753 753 752 752 752 751 751 751 751 751 751 750 750 750 750 750 749 748 748 748 747 746 746 745 745 745
794 793 793 792 791 790 790 789 788 787 787 785 784 783 782 782 780 780 779 778 777 776 774 773 772 771 770 768 767 766 764 763 762 760 759 758 757 756 755 755 754 753 753 752 752 751 751 750 750 750 750 749 750 749 749 749 749 749 748 747 747 747 746 745 744 744 744 743 743
795 794 793 793 792 791 790 790 789 788 787 786 785 783 783 782 781 780 779 778 777 776 775 774 772 771 770 769 767 766 765 763 762 761 759 758 757 756 755 754 753 753 752 751 751 750 750 749 749 749 748 748 748 748 748 748 748 747 747 746 745 745 744 743 743 742 742 741 741
795 795 795 794 793 792 791 790 790 789 788 786 785 784 783 782 781 780 779 778 777 776 775 774 772 771 770 769 768 766 765 764 762 761 760 759 758 756 755 754 753 753 752 751 750 750 749 748 748 748 748 747 747 747 747 746 746 745 745 744 744 743 743 742 741 740 740 739 738
797 796 796 795 794 793 792 791 790 789 788 787 785 784 783 782 781 780 779 778 777 776 775 773 772 771 770 769 768 767 765 764 763 762 760 759 758 757 756 755 754 753 752 751 750 749 748 748 748 747 747 747 747 746 746 745 745 744 743 742 742 742 741 740 739 739 738 737 736
799 798 797 796 795 794 793 791 791 790 788 787 786 785 784 783 782 780 779 778 777 776 775 773 772 771 770 769 768 767 765 764 763 762 761 760 759 757 756 755 754 753 752 750 750 749 748 748 748 747 747 746 746 745 745 744 743 743 742 741 740 740 740 739 738 738 737 736 735
800 799 798 797 795 794 793 792 791 790 789 788 786 785 784 783 782 780 779 778 777 776 775 773 772 771 770 769 768 767 766 765 763 762 761 760 759 758 756 755 754 753 752 751 750 749 748 748 748 748 747 746 746 745 744 743 743 742 741 740 739 739 738 738 737 736 736 735 734
800 799 798 797 796 795 794 792 792 790 789 788 787 785 784 783 782 781 779 778 777 776 775 774 772 771 770 769 768 767 766 765 764 763 761 760 759 758 757 756 754 753 752 751 750 750 749 749 748 748 747 746 746 745 744 743 742 741 740 739 738 738 737 737 736 735 734 733 732
801 800 798 797 796 795 794 793 792 791 789 788 787 786 785 783 782 781 780 779 778 776 775 774 772 771 770 769 768 767 766 765 764 763 762 760 759 758 757 756 755 754 753 752 751 750 749 749 748 748 747 746 746 745 744 743 742 741 740 739 738 737 736 735 734 733 733 732 731
801 800 799 798 796 795 794 793 792 790 789 788 787 785 784 783 782 781 780 779 777 776 775 773 772 771 770 769 768 767 766 765 764 763 762 761 760 759 758 757 755 754 753 752 751 750 749 749 748 747 747 746 745 744 743 742 742 741 740 739 738 737 735 734 734 733 732 731 730
802 800 799 798 797 795 794 793 792 790 789 788 786 785 784 783 782 781 780 778 777 776 774 773 772 771 770 769 768 767 766 765 764 763 762 761 759 758 758 757 755 754 753 752 751 750 749 749 748 747 746 745 744 744 743 742 741 740 739 738 737 736 735 734 733 732 731 730 729
802 801 800 798 797 796 794 793 791 790 789 788 786 785 784 783 781 780 779 778 777 775 774 773 772 771 770 769 768 767 766 765 764 763 762 760 759 758 757 756 755 754 753 752 751 750 749 748 747 746 745 744 744 743 742 741 740 739 738 737 736 735 734 733 732 731 730 729 728
803 801 800 799 797 796 794 793 791 790 789 788 786 785 784 782 781 780 779 778 777 775 774 773 772 770 770 769 768 767 766 765 764 763 761 760 759 758 757 756 755 754 753 751 750 750 749 748 747 746 745 744 743 742 741 741 740 739 738 736 735 734 733 732 731 730 729 728 727
803 801 800 799 797 796 794 793 792 790 789 788 786 785 784 782 781 780 779 778 776 775 774 772 771 770 769 768 768 766 765 765 763 762 761 760 759 758 756 755 754 753 752 751 750 749 748 748 746 745 744 743 742 741 740 740 739 738 737 736 735 733 732 731 730 729 728 727 726
802 801 800 799 797 796 795 793 792 790 789 788 786 785 784 782 781 780 778 777 776 775 773 772 771 770 769 768 767 766 765 764 763 762 760 759 758 757 756 755 754 752 751 750 749 748 748 747 746 745 744 743 741 740 739 738 738 737 736 735 734 733 731 730 729 728 727 726 725
802 801 800 798 797 796 794 793 792 790 789 788 786 785 784 782 781 780 778 777 776 775 773 772 771 770 769 768 767 766 765 764 763 761 760 759 758 757 756 755 753 752 751 750 749 748 747 746 745 744 743 742 741 740 739 738 736 735 734 733 732 731 730 729 728 727 725 724 723
802 800 799 798 797 795 794 793 792 790 789 788 786 785 783 782 781 779 778 777 776 774 773 772 770 770 768 767 766 765 765 763 762 761 760 759 758 757 756 754 753 752 751 749 748 747 746 745 744 743 742 741 740 739 738 737 735 734 733 732 731 730 729 728 727 725 724 723 722
801 800 799 798 796 795 794 792 791 790 788 787 785 784 783 781 780 779 777 776 775 774 773 771 770 769 768 767 766 765 764 763 762 761 760 759 758 756 755 754 753 751 750 749 748 747 746 745 743 743 741 740 739 738 737 735 734 733 732 731 729 728 727 726 725 724 723 722 720
801 800 798 797 796 794 793 792 790 789 788 786 785 783 782 781 779 778 777 775 774 773 772 771 770 768 767 766 765 765 764 763 761 760 759 758 757 756 754 753 752 750 749 748 747 746 745 744 743 741 740 739 738 736 735 734 733 731 730 729 728 726 725 724 723 722 721 720 718
800 799 798 796 795 794 792 791 790 788 787 785 784 782 781 780 778 777 776 775 774 772 771 770 769 768 767 766 765 764 763 762 761 759 758 757 756 755 753 752 751 750 748 747 746 745 744 743 741 740 739 738 736 735 733 732 731 729 728 727 726 724 723 722 721 720 719 717 716
800 798 797 796 794 793 792 790 789 787 786 784 783 782 780 779 778 777 775 774 773 772 771 770 768 767 766 765 764 763 762 761 760 759 757 756 755 754 753 751 750 748 747 746 745 744 743 741 740 739 738 736 735 733 732 730 729 727 726 725 723 722 721 720 719 718 716 715 714
799 797 796 795 793 792 791 789 788 786 785 784 782 781 780 778 777 776 775 773 772 771 770 769 768 767 766 765 764 762 761 760 759 758 757 755 754 753 752 750 749 748 747 745 744 743 741 740 739 738 736 735 734 732 731 729 728 726 724 723 721 720 719 718 717 716 714 713 712
798 797 795 794 793 791 790 788 787 785 784 783 781 780 779 778 776 775 774 773 772 770 769 768 767 766 765 764 763 762 760 759 758 756 755 754 753 752 751 750 748 747 746 745 743 743 741 740 738 737 735 734 733 731 730 728 727 725 723 721 719 718 716 715 714 713 712 711 710
797 796 794 793 792 790 789 788 786 785 784 782 781 780 779 777 776 775 773 772 771 770 769 768 766 765 764 763 762 761 760 759 757 756 754 753 753 751 750 749 748 747 745 744 743 742 741 740 738 737 735 733 731 730 728 727 725 724 722 720 718 716 714 712 711 710 710 708 707
796 795 794 793 791 790 788 787 786 785 783 782 781 779 778 777 775 774 773 771 770 769 768 767 765 764 763 762 761 760 759 758 757 755 754 753 752 751 750 748 747 746 745 743 743 741 740 739 738 736 734 732 730 728 727 725 724 722 721 719 717 715 713 711 709 708 706 706 704
796 794 793 792 791 789 788 787 786 784 783 781 780 779 778 776 775 774 772 771 770 768 767 766 765 764 763 762 761 760 759 758 756 755 754 753 751 750 749 748 747 745 744 743 742 741 739 738 737 735 733 732 730 728 726 724 722 720 719 718 716 714 712 710 708 706 704 703 701
795 794 793 792 790 789 788 787 785 784 782 781 780 778 777 776 774 773 772 770 769 768 767 765 765 763 763 762 761 760 758 757 756 755 754 753 751 750 749 748 746 745 743 742 741 740 738 737 735 734 732 731 729 727 725 723 721 719 718 716 714 713 711 709 707 705 703 700 699
795 794 793 791 790 789 788 786 785 783 782 781 779 778 777 775 774 773 771 770 769 768 766 765 764 763 762 761 760 759 758 757 756 755 753 752 751 749 748 747 745 744 743 741 740 738 737 735 734 732 731 729 728 725 723 722 720 718 716 715 713 711 710 708 706 704 702 699 697
795 794 793 791 790 789 787 786 785 783 782 780 779 778 776 775 774 772 771 770 769 768 767 765 764 763 762 761 760 759 758 756 755 754 753 751 750 748 747 746 744 743 741 740 739 737 736 734 733 731 729 728 726 724 723 721 719 717 715 713 712 710 708 706 704 702 700 698 696
795 794 793 792 790 789 787 786 785 783 782 780 779 778 776 775 773 772 771 770 769 768 766 765 764 763 762 761 760 758 757 756 754 753 752 750 749 747 746 744 743 741 740 739 737 736 734 733 731 730 728 726 725 723 721 720 718 716 714 712 710 708 707 705 703 701 699 697 695
795 794 793 792 790 789 787 786 784 783 781 780 779 777 776 775 773 772 771 769 768 767 765 764 763 762 761 760 759 758 756 755 754 753 751 750 748 746 745 743 741 740 739 738 736 735 733 731 730 728 727 725 723 722 720 718 716 715 713 711 709 707 705 703 701 699 697 695 693
795 794 793 791 790 788 787 785 784 782 781 779 778 777 775 774 772 771 770 769 768 766 765 763 762 761 760 759 758 756 755 754 753 752 750 749 747 745 743 742 740 739 738 736 735 733 732 730 728 727 725 724 722 720 718 717 715 713 711 709 707 705 704 702 700 698 695 693 691
795 794 792 791 789 788 786 785 783 782 780 779 777 776 775 773 772 770 769 768 767 766 764 763 762 761 760 759 757 756 755 753 752 751 749 748 746 744 742 741 739 738 737 735 734 732 731 729 727 726 724 722 720 719 717 715 713 711 709 707 705 703 701 699 698 695 693 691 689
794 793 791 790 788 787 785 784 782 781 779 778 777 775 774 772 771 770 768 767 766 765 763 762 761 760 759 758 757 755 754 753 751 750 748 746 745 743 741 739 738 737 736 734 733 731 730 728 726 725 723 721 719 717 715 713 711 709 707 705 703 700 699 697 695 693 690 688 686
794 792 791 789 788 786 785 783 782 780 779 777 776 774 773 771 770 769 768 766 765 763 762 761 760 759 758 757 755 754 753 752 750 748 747 745 744 742 740 738 737 735 734 733 732 730 728 727 725 723 722 720 718 716 714 712 709 707 705 703 700 698 696 694 692 690 688 686 684
793 792 790 789 787 785 784 782 781 779 778 776 775 773 772 770 769 768 767 765 764 762 761 760 759 758 757 755 755 753 752 751 749 748 746 745 743 741 739 737 736 734 733 732 731 729 728 726 724 723 721 719 717 715 713 710 708 706 703 701 698 696 694 692 689 687 685 682 680
792 791 790 788 786 785 783 782 780 779 777 776 774 773 771 770 768 767 766 765 763 762 760 759 758 757 756 755 753 752 751 750 749 747 745 744 742 741 739 737 735 734 732 731 730 728 727 725 724 722 720 718 716 714 712 709 707 704 702 699 696 694 692 690 687 684 682 679 677
791 790 789 787 786 784 783 781 780 778 777 775 773 772 770 769 768 767 765 764 763 762 760 759 757 756 755 754 753 751 750 749 748 747 745 743 742 740 739 737 735 733 732 731 730 728 726 725 723 722 720 718 716 713 711 709 706 703 700 698 695 692 689 687 685 682 679 676 674
791 789 788 787 785 783 782 781 779 778 776 775 773 771 770 769 768 766 765 764 763 761 760 759 757 756 755 754 752 750 749 748 747 746 745 743 741 740 739 737 735 733 731 730 729 728 726 724 723 721 719 718 715 713 711 708 705 702 699 697 694 691 687 684 682 680 677 674 671
790 788 787 786 784 783 781 780 779 777 776 774 773 771 770 768 767 766 764 763 762 761 760 758 757 756 755 754 752 750 748 747 746 745 744 742 741 739 738 736 734 733 731 730 729 727 725 724 722 720 719 717 715 713 710 708 705 701 698 696 693 690 687 683 680 677 675 672 669